Tracking 19794 objects as of 23-Jul-2019
HD Live streaming from Space Station
objects crossing your sky now

FENGYUN 1C DEB

Track FENGYUN 1C DEB now!
10-day predictions


NORAD ID: 31926
Int'l Code: 1999-025CMD
Perigee: 825.5 km
Apogee: 896.5 km
Inclination: 99.1 °
Period: 102.0 minutes
Semi major axis: 7232 km
RCS: 0.0122 m2 (small)
Launch date: May 10, 1999
Source: People's Republic of China (PRC)
Launch site: Taiyaun Space Center, China (TSC)

Note: This is SATELLITE DEBRIS
aabbcc
Your satellite tracking list
Your tracking list is empty




NASA's NSSDC Master Catalog

Two Line Element Set (TLE):
1 31926U 99025CMD 19202.02875778 +.00000375 +00000-0 +22894-3 0  9997
2 31926 099.0542 237.0654 0049094 053.9256 337.2725 14.11600402621350
Source of the keplerian elements: AFSPC